Location: Kapla
(46.2483°N, 15.0094°E)
Time: 15:59:56
(UTC+00:00)

Cosmos 2278 Rocket - Pass Details

Date: 03 March 2021
Orbit: 841 x 845 km, 71.0° (Epoch: 18 April)

Event Time Altitude Azimuth Distance (km) Brightness Sun altitude
Rises 20:24:38 0° 329° (NNW) 3,414 6.2 -36.4°
Reaches altitude 10° 20:27:09 10° 324° (NW) 2,474 5.3 -36.8°
Enters shadow 20:30:26 32° 303° (WNW) 1,407 3.7 -37.3°
